Flag for U.S.A. Weather past 2 weeks in Kilgore, Texas, U.S.A.

Now
76 °F

Clear.


Feels Like: 76 °F
Forecast: 75 / 94 °F
Wind: 8 mph from South

Location: Gregg County Airport

Current Time: Aug 21, 2014 at 3:44:48 AM

Latest Report: Aug 21, 2014 at 2:53 AM


Visibility: 10 mi

Pressure: 29.99 "Hg

Humidity: 88%

Dew point: 72 °F

Location of KilgoreLocation

Historic Weather in Kilgore — Graph

°F

Kilgore temperature yesterday

Maximum temperature yesterday: 94 °F (at 2:53 PM)
Minimum temperature yesterday: 73 °F (at 12:53 AM)
Average temperature yesterday: 83 °F

Past Weeks' High & Low Weather Summary

 TemperatureHumidityPressure
High96 °F (Aug 16, 4:53 PM)91% (Aug 6, 2:53 AM)30.08 "Hg (Aug 6, 2:53 AM)
Low63 °F (Aug 13, 6:53 AM)30% (Aug 12, 4:53 PM)29.82 "Hg (Aug 7, 6:53 PM)
Average83 °F68%29.95 "Hg
* Reported Aug 6 2:53 AM — Aug 21 2:53 AM, Kilgore, Weather by CustomWeather, © 2014

Note: Actual official high and low records may vary slightly from our data, if they occured in-between our weather recording intervals... More about our weather records

Advertising

Kilgore weather history for previous 24 hours

 ConditionsComfort  
Time TempWeatherWind HumidityBarometerVisibility
2:53 AM
Aug 21
76 °FClear.8 mph88%29.99 "Hg10 mi
1:53 AM75 °FClear.5 mph88%30.00 "Hg10 mi
12:53 AM75 °FClear.5 mph85%30.00 "Hg10 mi
11:53 PM
Aug 20
76 °FClear.6 mph82%29.99 "Hg10 mi
10:53 PM78 °FClear.8 mph74%29.97 "Hg10 mi
9:53 PM81 °FClear.12 mph67%29.97 "Hg10 mi
8:53 PM83 °FScattered clouds.9 mph65%29.96 "Hg10 mi
7:53 PM86 °FPassing clouds.12 mph57%29.94 "Hg10 mi
6:53 PM91 °FSunny.10 mph52%29.93 "Hg10 mi
5:53 PM93 °FPassing clouds.13 mph49%29.94 "Hg10 mi
4:53 PM94 °FPassing clouds.13 mph46%29.93 "Hg10 mi
3:53 PM94 °FScattered clouds.12 mph46%29.93 "Hg10 mi
2:53 PM94 °FPassing clouds.12 mph49%29.95 "Hg10 mi
1:53 PM93 °FScattered clouds.16 mph49%29.98 "Hg10 mi
12:53 PM92 °FSunny.16 mph51%29.99 "Hg10 mi
11:53 AM90 °FSunny.12 mph54%30.00 "Hg10 mi
10:53 AM87 °FSunny.12 mph61%30.00 "Hg10 mi
9:53 AM82 °FPassing clouds.12 mph74%30.00 "Hg10 mi
8:53 AM78 °FLow clouds.12 mph84%29.99 "Hg8 mi
7:53 AM76 °FPartly sunny.7 mph88%29.98 "Hg9 mi
6:53 AM75 °FPassing clouds.5 mph88%29.96 "Hg9 mi
5:53 AM75 °FPassing clouds.7 mph88%29.94 "Hg10 mi
4:53 AM74 °FClear.9 mph88%29.92 "Hg10 mi
3:53 AM73 °FClear.5 mph88%29.91 "Hg10 mi
Weather by CustomWeather, © 2014

See weather overviewHow to use our weather pages